This is the latest recevied weather packets stored in our database for station/object 4S6DRJ-13. If no packets are shown the sender has not sent any weather packets the latest 10 day(s).
| Time | Temp. | Humidity | Pressure | Rain* | Wind** | Luminosity | Snow |
|---|---|---|---|---|---|---|---|
| 1787966625 | 27.22° C | 88% | 1009.7 hPa | 0.76 mm | 0 m/s | 52 W/m² | - |
| 1787966564 | 27.22° C | 88% | 1009.7 hPa | 0.76 mm | 0 m/s | 50 W/m² | - |
| 1787966503 | 27.22° C | 88% | 1009.6 hPa | 0.76 mm | 0.45 m/s, 232° | 47 W/m² | - |
| 1787966441 | 27.22° C | 88% | 1009.5 hPa | 0.76 mm | 0.89 m/s, 229° | 43 W/m² | - |
| 1787966381 | 27.22° C | 88% | 1009.8 hPa | 0.76 mm | 0.45 m/s, 2° | 39 W/m² | - |
| 1787966320 | 27.22° C | 88% | 1009.6 hPa | 0.76 mm | 0.45 m/s, 279° | 34 W/m² | - |
| 1787966258 | 27.22° C | 88% | 1009.7 hPa | 0.76 mm | 0.89 m/s, 237° | 30 W/m² | - |
| 1787966198 | 27.22° C | 88% | 1009.5 hPa | 0.76 mm | 1.34 m/s, 243° | 28 W/m² | - |
| 1787966137 | 27.22° C | 88% | 1009.6 hPa | 0.76 mm | 1.34 m/s, 164° | 31 W/m² | - |
| 1787966076 | 27.22° C | 88% | 1009.5 hPa | 0.76 mm | 0.45 m/s, 221° | 36 W/m² | - |
| 1787966014 | 27.22° C | 88% | 1009.6 hPa | 0.76 mm | 0.45 m/s, 237° | 36 W/m² | - |
| 1787965954 | 27.22° C | 88% | 1009.6 hPa | 0.76 mm | 1.34 m/s, 222° | 33 W/m² | - |
| 1787965893 | 27.22° C | 88% | 1009.5 hPa | 0.76 mm | 0 m/s | 32 W/m² | - |
| 1787965832 | 27.22° C | 88% | 1009.5 hPa | 0.76 mm | 1.79 m/s, 162° | 31 W/m² | - |
| 1787965770 | 27.22° C | 88% | 1009.4 hPa | 0.76 mm | 0.45 m/s, 208° | 29 W/m² | - |
| 1787965710 | 27.22° C | 88% | 1009.6 hPa | 0.76 mm | 0.89 m/s, 222° | 28 W/m² | - |
| 1787965649 | 27.22° C | 88% | 1009.6 hPa | 0.76 mm | 0.89 m/s, 213° | 27 W/m² | - |
| 1787965588 | 27.22° C | 88% | 1009.3 hPa | 0.76 mm | 1.34 m/s, 204° | 24 W/m² | - |
| 1787965526 | 27.22° C | 88% | 1009.7 hPa | 0.76 mm | 1.34 m/s, 217° | 23 W/m² | - |
| 1787965466 | 27.22° C | 87% | 1009.6 hPa | 0.76 mm | 0.45 m/s, 243° | 22 W/m² | - |
| 1787965404 | 27.22° C | 87% | 1009.5 hPa | 0.76 mm | 0.89 m/s, 233° | 20 W/m² | - |
| 1787965344 | 27.22° C | 87% | 1009.5 hPa | 0.76 mm | 0.45 m/s, 212° | 20 W/m² | - |
| 1787965283 | 27.78° C | 87% | 1009.4 hPa | 0.76 mm | 1.34 m/s, 222° | 18 W/m² | - |
| 1787965222 | 27.78° C | 87% | 1009.5 hPa | 0.76 mm | 0.89 m/s, 262° | 15 W/m² | - |
| 1787965161 | 27.78° C | 86% | 1009.4 hPa | 0.76 mm | 0 m/s | 14 W/m² | - |
* Rain latest hour (hover to see other rain measurements)
** Current wind speed in m/s (hover to see current wind gust speed)